Temp
56 56 56 56 56 56 56 56 56 56 55 56 56 55 55 55 54 46 43 47 40 34 37 43 44 37 37 35 28 34 32 35 32 27 28 28 27 29 28 32 31 28 24 23 25 23 24 45 43 35 39 42 43 41
56 56 55 56 56 56 56 56 55 55 55 55 55 55 55 55 54 50 43 47 47 37 37 44 46 48 45 44 37 36 33 34 35 28 27 26 22 23 25 18 34 26 32 29 30 27 40 43 40 44 44 42 42 41
55 55 55 56 56 56 56 56 55 55 55 54 54 54 55 54 54 50 41 42 40 35 35 37 40 47 48 48 48 33 35 40 37 40 32 28 21 28 19 23 25 32 36 27 29 34 37 42 45 43 44 43 45 45
54 55 55 54 55 55 55 55 55 55 55 55 55 55 55 54 54 51 41 43 40 36 25 32 48 43 50 47 47 46 43 43 41 36 30 21 23 31 25 29 27 31 33 30 30 35 38 41 41 43 45 45 45 45
54 54 54 54 54 54 54 55 55 55 55 55 54 55 54 54 53 48 43 43 44 37 25 31 39 44 46 45 46 46 43 39 34 30 31 26 29 31 29 29 27 33 31 26 27 37 36 37 42 44 43 42 42 40
53 54 54 54 54 54 54 54 54 54 54 54 54 54 54 53 52 42 35 42 45 46 35 22 37 38 42 44 43 41 41 38 36 34 33 33 35 32 23 21 32 39 39 39 35 40 41 42 42 43 41 39 40 38
53 53 53 53 54 54 54 54 53 53 54 54 53 53 53 52 43 38 35 41 48 45 33 26 24 36 41 39 38 38 39 40 38 35 32 29 31 34 30 22 34 39 43 42 43 40 35 40 37 40 39 39 39 39
53 53 53 53 53 53 53 53 53 53 53 53 53 53 52 52 48 39 43 49 45 38 36 28 24 29 37 32 30 40 36 37 35 33 31 28 31 29 25 31 35 39 41 41 40 39 38 37 38 37 37 37 35 34
52 52 53 53 53 53 53 53 53 53 53 52 53 51 45 40 35 38 50 50 44 39 29 29 23 19 36 33 32 34 37 29 33 30 28 30 27 25 31 33 34 38 39 39 38 38 36 35 34 33 33 33 32 33
51 52 52 52 52 52 52 52 53 53 52 51 44 38 31 35 49 48 42 35 36 34 34 29 31 24 32 28 24 29 30 27 18 26 31 29 26 37 39 40 39 40 40 38 33 32 31 29 30 30 31 33 34 33
51 51 51 52 52 52 52 52 52 52 50 39 33 33 39 47 41 33 31 30 31 26 31 33 30 29 33 27 25 28 22 28 22 23 23 16 21 32 38 38 39 41 41 38 36 34 32 30 31 32 33 35 34 34
51 51 51 51 52 52 52 52 51 45 40 40 38 42 40 35 32 29 25 23 25 20 25 27 28 30 31 33 29 26 26 25 17 28 24 16 29 36 37 38 39 39 38 36 36 34 33 34 34 34 34 34 34 34
51 51 51 51 51 51 51 52 51 49 46 42 36 33 32 31 26 23 11 22 15 28 30 29 27 29 30 30 29 26 24 23 28 20 20 28 34 37 36 38 38 38 37 36 34 34 35 35 36 35 34 35 34 33
51 51 50 51 50 50 51 51 50 49 41 33 31 25 26 20 23 19 21 24 29 30 31 30 25 32 33 26 20 23 26 23 18 11 22 28 33 36 37 37 37 35 35 33 32 34 33 33 34 36 35 34 32 30
50 50 50 50 49 50 50 50 50 44 36 31 31 25 24 25 22 26 29 30 34 35 33 28 30 30 28 24 23 21 20 21 21 22 30 31 34 35 35 35 33 32 32 31 33 32 32 33 33 33 33 32 30 30
50 49 46 49 50 50 49 48 42 38 32 31 30 26 27 25 21 22 25 29 35 35 33 31 22 21 22 18 20 23 12 16 23 29 32 33 33 35 34 34 32 31 29 31 32 34 33 33 31 31 32 30 28 29
49 42 49 50 50 49 48 40 36 32 32 30 29 29 23 23 26 29 31 32 37 33 21 25 24 23 21 11 14 24 22 27 33 34 33 35 34 33 33 31 32 30 31 31 32 33 31 33 33 31 26 27 26 27
41 42 49 49 45 42 36 35 33 31 28 30 28 31 31 32 31 31 32 33 33 28 28 23 28 23 20 20 19 25 30 33 35 33 33 34 34 32 31 29 29 31 32 31 33 31 31 32 29 26 26 25 25 23
43 44 49 48 44 36 33 32 33 28 29 32 32 24 28 26 29 31 31 33 37 35 33 31 27 24 23 26 28 30 29 28 26 27 28 32 29 29 30 29 31 32 31 32 31 29 30 28 26 26 24 23 21 21
48 48 49 47 43 33 30 31 32 29 27 26 25 25 26 26 28 27 29 30 33 32 29 27 25 27 24 27 29 29 27 27 26 23 24 26 29 31 32 33 32 31 31 30 29 31 26 26 27 26 24 24 22 18
46 44 48 41 35 33 28 30 28 30 31 25 29 30 26 29 29 29 30 33 31 29 21 26 32 35 31 31 32 34 33 32 30 32 33 26 29 31 34 32 30 27 24 24 24 21 28 21 21 21 20 13 13 13
37 43 34 36 32 32 31 32 25 27 24 24 25 30 28 27 27 28 31 29 29 30 25 27 34 34 32 25 28 32 33 31 32 33 35 35 32 31 29 28 27 24 23 22 22 21 20 20 18 14 13 12 19 13
42 38 33 32 30 29 28 32 27 28 25 25 27 25 26 27 30 31 27 29 25 25 35 34 33 27 31 28 29 32 32 32 31 32 31 31 31 30 29 23 23 23 22 21 22 22 21 27 27 24 23 24 22 21
40 33 31 29 29 25 28 26 28 26 27 24 24 23 23 26 30 27 26 24 25 21 22 22 21 22 26 27 24 23 27 30 31 30 31 30 29 28 24 24 26 27 27 27 25 24 24 25 28 24 24 24 24 23
30 28 30 27 26 23 24 22 24 25 20 24 23 23 23 29 25 24 22 26 23 23 25 25 29 30 26 24 25 26 29 32 30 29 30 31 27 23 24 24 25 25 27 24 24 25 24 24 24 23 23 23 22 22
26 24 25 20 17 18 19 21 23 21 25 23 24 20 27 25 23 21 25 25 27 28 29 28 24 20 22 26 28 28 28 31 31 26 25 26 25 24 23 23 23 24 26 26 25 25 24 24 23 23 22 22 27 24
24 23 21 16 21 21 22 26 25 23 24 17 18 25 24 20 17 24 23 25 27 27 27 22 21 20 21 27 28 28 26 33 29 26 27 27 26 26 26 24 24 26 27 27 26 25 24 24 23 23 22 22 21 21
19 17 20 20 20 24 21 16 16 16 18 21 23 22 21 21 22 25 25 25 26 26 23 22 22 20 25 28 29 26 29 29 25 25 24 24 24 24 24 24 25 32 26 26 26 26 25 24 22 22 22 21 21 22
16 18 22 14 16 19 19 20 19 23 24 23 21 19 21 25 25 23 23 24 25 24 21 19 18 20 21 25 29 29 28 22 20 18 18 20 20 21 23 23 24 23 24 26 31 28 26 23 22 22 22 21 21 21
16 21 17 16 17 18 20 23 20 18 16 18 19 20 21 20 21 22 22 22 22 22 22 21 22 24 25 25 25 25 26 22 20 19 19 20 22 23 22 23 23 22 22 23 23 23 30 26 25 21 21 20 19 19
19 23 20 17 15 15 15 16 17 17 14 15 17 18 19 18 20 21 23 22 21 21 20 20 23 27 26 25 25 24 23 23 22 23 22 22 22 22 22 22 22 22 22 21 21 21 21 21 20 19 18 18 18 19
22 22 20 12 10 13 15 15 14 15 14 14 12 13 16 14 13 18 20 19 19 18 23 24 22 22 25 25 24 23 30 22 23 22 24 21 23 23 22 20 20 21 21 21 21 20 20 20 18 17 16 16 15 15
13 15 15 12 8 9 15 14 10 8 10 9 10 12 13 16 15 18 21 21 24 24 24 24 25 25 25 26 25 25 27 19 24 30 31 30 29 25 20 18 20 21 20 19 20 20 19 16 16 17 17 16 16 15
MSLP
1028.14 1028.48 1028.57 1028.66 1028.92 1029.21 1029.21 1029.29 1029.40 1029.40 1029.47 1029.42 1029.49 1029.52 1029.47 1029.31 1029.33 1029.43 1029.51 1029.07 1029.46 1029.79 1029.21 1028.59 1028.48 1028.46 1028.51 1028.75 1029.31 1029.07 1028.94 1028.49 1028.44 1028.73 1028.97 1028.94 1028.33 1027.88 1027.33 1026.57 1025.79 1025.74 1025.71 1025.62 1025.27 1024.59 1023.90 1023.24 1022.82 1023.37 1023.22 1022.50 1022.44 1022.40
1027.89 1028.12 1028.29 1028.43 1028.72 1028.88 1028.98 1029.19 1029.31 1029.44 1029.35 1029.42 1029.42 1029.58 1029.51 1029.45 1029.58 1029.60 1029.86 1029.65 1029.55 1030.04 1029.55 1028.70 1028.22 1027.88 1027.90 1028.15 1028.85 1029.00 1029.16 1029.19 1028.92 1029.18 1029.61 1029.80 1029.87 1029.06 1028.45 1027.85 1026.61 1026.63 1026.24 1026.25 1026.03 1025.00 1023.41 1022.99 1023.15 1022.88 1022.71 1022.75 1022.48 1022.24
1027.67 1027.91 1028.00 1028.17 1028.52 1028.63 1028.78 1028.97 1029.11 1029.23 1029.43 1029.42 1029.44 1029.50 1029.54 1029.51 1029.57 1029.79 1030.14 1030.20 1030.24 1030.42 1029.78 1028.94 1027.92 1027.17 1027.07 1027.28 1027.67 1028.82 1028.71 1028.47 1028.86 1029.06 1029.79 1030.10 1030.35 1029.50 1029.30 1028.28 1027.42 1026.78 1026.13 1025.89 1025.57 1024.67 1024.01 1023.35 1022.35 1022.48 1022.47 1022.30 1022.09 1022.09
1027.45 1027.65 1027.85 1028.07 1028.26 1028.46 1028.58 1028.71 1028.88 1029.01 1029.27 1029.29 1029.40 1029.43 1029.48 1029.43 1029.62 1029.70 1030.18 1030.26 1030.57 1030.95 1030.80 1029.23 1027.63 1027.26 1026.51 1026.81 1027.24 1027.42 1027.87 1028.04 1028.65 1029.23 1029.90 1030.57 1030.43 1029.28 1028.99 1028.21 1027.84 1027.13 1026.53 1025.59 1025.10 1024.39 1023.75 1022.90 1022.73 1022.42 1022.05 1022.07 1022.14 1022.19
1027.09 1027.32 1027.58 1027.86 1028.04 1028.29 1028.41 1028.49 1028.62 1028.85 1028.93 1029.07 1029.23 1029.27 1029.40 1029.40 1029.55 1029.74 1030.02 1029.93 1030.07 1031.03 1031.29 1029.85 1028.23 1026.84 1026.30 1026.54 1026.71 1027.00 1027.57 1028.20 1028.82 1029.45 1029.89 1030.03 1029.44 1029.12 1028.42 1028.04 1027.06 1026.14 1025.38 1025.29 1024.49 1023.92 1023.78 1023.25 1022.70 1022.52 1022.53 1022.69 1022.74 1022.67
1026.78 1027.08 1027.35 1027.55 1027.72 1027.90 1028.18 1028.36 1028.48 1028.62 1028.71 1028.82 1028.96 1028.99 1029.14 1029.37 1029.58 1030.01 1030.11 1029.65 1029.69 1030.10 1030.79 1030.98 1028.88 1027.49 1026.87 1026.54 1026.61 1026.90 1027.21 1027.90 1028.51 1029.26 1029.55 1029.23 1028.53 1028.62 1028.41 1027.33 1025.17 1024.48 1024.19 1024.13 1023.77 1023.18 1023.27 1022.85 1022.86 1022.79 1023.08 1023.38 1023.44 1023.50
1026.56 1026.73 1027.01 1027.21 1027.36 1027.57 1027.85 1027.97 1028.18 1028.37 1028.41 1028.48 1028.64 1028.74 1029.01 1029.18 1029.83 1030.14 1030.04 1029.97 1029.60 1029.93 1030.76 1031.05 1029.89 1028.05 1027.02 1026.99 1027.04 1027.26 1027.47 1027.75 1028.20 1028.99 1028.91 1028.75 1028.32 1028.16 1027.68 1026.18 1024.53 1023.87 1023.43 1022.99 1022.69 1022.77 1022.91 1022.90 1023.28 1023.50 1023.64 1023.73 1023.79 1023.86
1026.10 1026.38 1026.61 1026.83 1027.02 1027.23 1027.43 1027.51 1027.73 1027.88 1027.96 1028.12 1028.37 1028.58 1028.86 1029.17 1029.59 1029.80 1029.44 1029.50 1029.85 1030.49 1030.99 1031.19 1030.26 1028.99 1027.40 1027.61 1027.93 1027.66 1028.03 1028.25 1028.42 1028.54 1028.37 1028.13 1027.66 1027.45 1026.36 1023.85 1023.59 1023.13 1022.66 1022.59 1022.60 1022.55 1022.88 1023.27 1023.48 1023.74 1023.93 1024.03 1024.05 1024.01
1025.71 1025.98 1026.23 1026.46 1026.63 1026.71 1026.89 1027.14 1027.35 1027.57 1027.75 1027.99 1028.23 1028.54 1029.25 1029.61 1030.01 1029.50 1028.67 1029.02 1029.67 1030.55 1030.91 1030.80 1030.33 1029.35 1027.78 1027.92 1028.22 1028.29 1028.32 1028.69 1028.24 1028.24 1027.78 1027.53 1026.84 1025.89 1023.62 1023.17 1022.95 1022.72 1022.47 1022.39 1022.32 1022.60 1023.06 1023.40 1023.71 1024.09 1024.30 1024.30 1024.22 1024.16
1025.32 1025.56 1025.76 1025.97 1026.21 1026.31 1026.49 1026.74 1027.07 1027.40 1027.74 1027.96 1028.61 1029.18 1029.67 1029.79 1029.28 1029.31 1029.37 1029.88 1030.07 1029.97 1030.10 1029.82 1029.51 1029.10 1028.40 1028.39 1028.77 1028.97 1028.73 1028.73 1028.45 1027.47 1027.05 1026.66 1025.38 1023.47 1022.46 1021.86 1021.92 1022.01 1022.12 1022.23 1022.52 1022.91 1023.33 1023.67 1024.02 1024.25 1024.32 1024.28 1024.40 1024.39
1024.77 1025.04 1025.34 1025.59 1025.73 1025.85 1026.19 1026.42 1026.75 1027.10 1027.77 1028.43 1029.10 1029.56 1029.61 1029.46 1029.68 1029.91 1030.18 1030.34 1030.15 1030.03 1029.55 1028.91 1028.74 1028.49 1027.97 1028.32 1028.64 1028.61 1028.68 1028.46 1028.37 1027.50 1027.12 1025.93 1024.44 1022.28 1021.34 1021.30 1021.22 1021.71 1022.11 1022.38 1022.63 1022.99 1023.36 1023.68 1023.94 1024.13 1024.22 1024.28 1024.35 1024.23
1024.35 1024.67 1024.89 1025.12 1025.30 1025.44 1025.68 1025.93 1026.24 1027.16 1027.64 1027.86 1028.55 1029.14 1029.57 1029.73 1030.06 1030.37 1030.15 1030.22 1030.08 1029.36 1028.65 1028.25 1027.94 1028.11 1027.98 1027.72 1028.30 1028.49 1028.52 1028.63 1027.91 1027.06 1026.87 1025.69 1022.83 1021.52 1021.44 1021.56 1021.69 1021.92 1022.15 1022.45 1022.74 1023.04 1023.32 1023.54 1023.68 1023.84 1023.99 1024.15 1024.21 1024.15
1023.86 1024.17 1024.32 1024.47 1024.63 1024.86 1025.09 1025.34 1025.58 1026.34 1027.14 1028.07 1028.62 1029.23 1029.61 1029.72 1029.84 1029.74 1029.63 1029.17 1028.91 1027.93 1027.22 1027.22 1027.49 1027.54 1027.76 1028.02 1028.53 1028.73 1028.53 1028.03 1027.33 1026.93 1025.86 1023.89 1022.15 1021.75 1021.55 1021.55 1021.78 1021.88 1022.13 1022.53 1022.82 1022.99 1023.20 1023.37 1023.49 1023.70 1023.86 1023.94 1024.03 1024.04
1023.29 1023.43 1023.57 1023.76 1023.95 1024.12 1024.38 1024.65 1024.96 1025.77 1026.90 1027.68 1028.00 1028.53 1028.72 1028.79 1028.41 1027.54 1027.09 1026.71 1026.39 1026.20 1026.29 1026.59 1027.38 1027.48 1027.79 1028.42 1028.48 1028.56 1027.98 1027.52 1026.94 1026.03 1024.67 1022.64 1021.56 1021.33 1021.49 1021.64 1021.78 1022.12 1022.33 1022.61 1022.82 1022.99 1023.17 1023.31 1023.45 1023.61 1023.75 1023.85 1024.03 1024.12
1022.53 1022.64 1022.86 1023.05 1023.24 1023.37 1023.60 1023.92 1024.33 1025.41 1026.35 1026.90 1027.11 1026.93 1027.01 1026.13 1026.05 1025.87 1025.73 1025.66 1025.19 1025.13 1025.76 1026.49 1027.08 1027.50 1027.79 1028.11 1027.96 1027.98 1027.67 1026.49 1025.44 1024.14 1022.70 1021.63 1021.15 1021.11 1021.41 1021.64 1021.92 1022.22 1022.47 1022.65 1022.78 1022.92 1023.10 1023.25 1023.45 1023.61 1023.73 1023.92 1024.07 1024.09
1021.89 1022.12 1022.11 1022.24 1022.34 1022.51 1022.82 1023.33 1024.58 1025.25 1025.67 1025.86 1025.78 1025.78 1025.36 1025.70 1025.70 1025.65 1025.07 1024.72 1024.42 1024.82 1025.53 1026.08 1026.92 1027.38 1027.32 1027.25 1027.29 1026.68 1026.17 1024.42 1023.18 1022.35 1021.53 1021.10 1021.19 1021.12 1021.29 1021.46 1021.71 1021.97 1022.18 1022.44 1022.59 1022.70 1022.89 1023.11 1023.41 1023.48 1023.65 1023.91 1023.99 1024.08
1021.16 1021.39 1021.12 1021.13 1021.20 1021.65 1022.45 1023.55 1024.48 1024.71 1024.67 1024.46 1024.61 1024.79 1025.12 1024.66 1024.51 1024.27 1024.12 1023.87 1023.85 1024.58 1025.43 1025.57 1026.25 1026.30 1026.46 1026.35 1025.86 1024.59 1023.30 1022.50 1021.84 1021.44 1021.11 1020.83 1020.78 1020.81 1020.95 1021.26 1021.53 1021.70 1021.89 1022.07 1022.27 1022.49 1022.71 1022.94 1023.09 1023.37 1023.74 1023.96 1023.96 1024.04
1020.57 1020.60 1020.55 1020.82 1021.08 1022.02 1023.05 1023.29 1023.84 1024.25 1024.31 1024.01 1024.03 1023.99 1024.03 1024.11 1024.04 1023.82 1023.40 1023.15 1023.50 1023.77 1024.21 1024.38 1024.49 1024.96 1024.61 1023.95 1023.04 1022.30 1021.95 1021.38 1021.00 1020.88 1020.66 1020.54 1020.44 1020.56 1020.76 1021.00 1021.21 1021.41 1021.67 1021.89 1022.06 1022.30 1022.60 1022.81 1023.07 1023.48 1023.87 1023.94 1024.05 1024.24
1019.69 1019.92 1020.18 1020.48 1021.10 1022.03 1023.01 1023.64 1023.87 1023.91 1023.60 1023.53 1023.46 1023.36 1023.31 1023.04 1022.69 1022.40 1022.38 1022.41 1022.43 1022.57 1023.20 1023.50 1023.55 1022.64 1021.90 1021.52 1021.29 1021.29 1021.00 1021.07 1020.89 1020.54 1020.47 1020.09 1020.12 1020.31 1020.51 1020.72 1020.94 1021.17 1021.40 1021.62 1021.90 1022.22 1022.50 1022.67 1022.98 1023.44 1023.73 1023.95 1024.37 1024.37
1018.96 1019.33 1019.66 1020.22 1020.88 1022.00 1022.93 1023.40 1023.47 1023.41 1023.34 1023.05 1022.96 1022.90 1022.87 1022.71 1022.41 1022.32 1022.34 1022.29 1022.44 1022.60 1022.42 1021.93 1020.74 1020.30 1020.29 1020.07 1019.77 1019.81 1019.88 1020.04 1020.26 1020.47 1020.42 1020.19 1019.88 1020.07 1020.20 1020.37 1020.55 1020.87 1021.29 1021.57 1021.96 1022.25 1022.58 1022.80 1023.03 1023.37 1023.62 1023.87 1024.27 1024.51
1018.23 1018.55 1019.23 1019.97 1021.12 1021.64 1022.00 1022.47 1022.89 1022.83 1022.55 1022.70 1022.22 1022.30 1022.17 1022.13 1022.14 1022.08 1021.90 1021.92 1022.07 1021.33 1020.81 1019.72 1019.37 1018.93 1018.98 1018.94 1018.98 1019.00 1019.07 1019.25 1019.39 1019.46 1019.52 1019.67 1019.66 1019.80 1020.09 1020.26 1020.53 1021.01 1021.46 1021.86 1022.20 1022.34 1022.55 1022.95 1023.13 1023.34 1023.57 1023.75 1023.87 1024.02
1017.98 1018.37 1019.59 1020.46 1020.11 1021.00 1021.48 1021.69 1021.97 1022.15 1022.57 1022.20 1022.19 1021.93 1021.73 1021.64 1021.56 1021.45 1021.25 1021.33 1020.48 1019.53 1019.17 1018.60 1018.10 1018.33 1018.53 1018.65 1018.51 1018.44 1018.35 1018.57 1018.74 1018.96 1019.15 1019.33 1019.51 1019.81 1020.18 1020.51 1020.90 1021.19 1021.50 1021.90 1022.10 1022.35 1022.66 1022.61 1022.86 1023.09 1023.30 1023.43 1023.57 1023.62
1017.91 1018.72 1019.68 1020.08 1020.56 1021.08 1021.46 1021.39 1021.63 1021.77 1022.05 1021.92 1021.76 1021.58 1021.21 1020.84 1020.42 1020.62 1020.70 1019.99 1019.00 1017.81 1017.58 1017.60 1017.43 1017.59 1017.85 1017.94 1018.10 1018.18 1018.28 1018.48 1018.63 1018.72 1018.90 1019.12 1019.37 1019.62 1020.00 1020.46 1020.65 1020.98 1021.37 1021.75 1021.66 1021.91 1022.18 1022.26 1022.50 1022.65 1022.85 1023.00 1023.07 1023.06
1018.13 1018.94 1019.59 1019.73 1020.17 1020.84 1021.18 1021.13 1021.15 1021.37 1021.49 1021.55 1021.43 1021.07 1020.76 1020.37 1020.18 1020.19 1019.67 1018.64 1017.54 1017.37 1017.30 1017.33 1017.32 1017.84 1018.01 1018.12 1018.28 1018.06 1018.19 1018.26 1018.41 1018.51 1018.65 1018.98 1019.34 1019.69 1020.08 1020.39 1020.59 1020.73 1020.86 1020.96 1021.32 1021.61 1021.81 1021.99 1022.16 1022.37 1022.51 1022.63 1022.66 1022.69
1018.57 1019.08 1019.34 1019.51 1019.99 1020.74 1020.81 1020.71 1020.75 1021.06 1020.94 1021.03 1021.10 1020.65 1020.20 1019.86 1019.73 1019.43 1018.57 1017.40 1017.34 1017.38 1017.47 1017.40 1017.49 1017.50 1017.79 1017.75 1017.78 1017.77 1017.81 1017.96 1018.22 1018.45 1018.62 1018.87 1019.40 1019.92 1020.21 1020.32 1020.45 1020.58 1020.67 1020.98 1021.28 1021.41 1021.57 1021.72 1021.88 1022.04 1022.15 1022.26 1022.34 1022.36
1017.86 1018.24 1018.74 1019.09 1019.94 1020.24 1020.15 1020.10 1020.10 1020.11 1020.20 1020.40 1020.25 1019.83 1019.60 1019.68 1019.40 1018.46 1017.41 1016.75 1016.91 1017.05 1017.16 1017.37 1017.64 1017.82 1017.83 1017.51 1017.58 1017.70 1017.83 1017.92 1018.20 1018.52 1018.79 1018.95 1019.30 1019.60 1019.97 1020.33 1020.49 1020.56 1020.50 1020.67 1020.93 1021.09 1021.23 1021.38 1021.56 1021.72 1021.86 1021.95 1021.95 1022.04
1017.74 1018.31 1018.65 1019.17 1019.09 1019.24 1019.52 1019.17 1019.37 1019.79 1019.69 1019.76 1019.52 1019.45 1019.54 1019.33 1018.44 1017.15 1016.60 1016.59 1016.75 1016.82 1016.96 1017.19 1017.55 1017.70 1017.62 1017.40 1017.48 1017.43 1017.54 1017.83 1018.29 1018.49 1018.53 1018.81 1019.08 1019.28 1019.58 1019.95 1020.06 1019.96 1019.99 1020.33 1020.59 1020.80 1020.97 1021.12 1021.27 1021.45 1021.63 1021.75 1021.87 1021.98
1017.03 1017.91 1018.37 1018.83 1019.07 1018.87 1019.19 1019.38 1019.51 1019.29 1019.20 1018.74 1018.83 1018.97 1018.75 1018.11 1017.07 1016.27 1016.27 1016.45 1016.55 1016.94 1017.19 1017.34 1017.44 1017.45 1017.39 1017.36 1017.45 1017.73 1018.03 1018.42 1018.71 1018.80 1018.97 1019.19 1019.25 1019.41 1019.53 1019.62 1019.74 1019.85 1020.07 1020.24 1020.41 1020.56 1020.74 1020.98 1021.14 1021.29 1021.40 1021.50 1021.59 1021.61
1017.20 1017.25 1017.66 1018.66 1018.96 1018.93 1018.77 1018.79 1018.56 1018.10 1017.53 1017.80 1018.12 1017.80 1017.43 1016.58 1016.13 1016.21 1016.36 1016.47 1016.68 1017.04 1017.42 1017.57 1017.70 1017.53 1017.49 1017.46 1017.58 1017.84 1018.18 1018.65 1019.04 1019.29 1019.38 1019.48 1019.61 1019.55 1019.50 1019.65 1019.78 1019.94 1020.12 1020.25 1020.25 1020.45 1020.64 1020.84 1021.00 1021.13 1021.21 1021.32 1021.39 1021.41
1016.87 1016.73 1017.41 1017.87 1018.35 1018.19 1017.52 1017.43 1017.47 1017.55 1017.70 1017.48 1017.43 1017.33 1017.07 1016.63 1016.21 1016.00 1016.17 1016.53 1016.78 1016.88 1016.96 1017.18 1017.33 1017.40 1017.44 1017.55 1017.72 1018.03 1018.26 1018.56 1018.69 1018.92 1019.00 1019.14 1019.11 1019.04 1019.24 1019.47 1019.71 1019.94 1020.13 1020.27 1020.39 1020.42 1020.35 1020.59 1020.85 1021.06 1021.18 1021.27 1021.30 1021.32
1015.97 1016.60 1017.00 1017.45 1017.71 1017.43 1017.46 1017.58 1017.69 1017.90 1018.16 1018.11 1018.01 1017.96 1017.56 1017.16 1016.30 1015.78 1015.88 1015.96 1016.20 1016.48 1016.74 1016.87 1016.97 1016.90 1017.04 1017.17 1017.42 1017.79 1017.96 1018.16 1018.21 1018.37 1018.47 1018.57 1018.69 1018.94 1019.20 1019.38 1019.50 1019.73 1020.03 1020.30 1020.43 1020.52 1020.55 1020.69 1020.84 1020.97 1021.05 1021.10 1021.12 1021.11
1016.17 1016.39 1016.72 1017.61 1017.84 1017.88 1017.91 1018.09 1018.33 1018.47 1018.68 1018.62 1018.38 1018.09 1017.93 1017.90 1017.43 1016.06 1015.88 1015.85 1016.16 1016.31 1016.20 1016.31 1016.49 1016.54 1016.66 1016.80 1017.00 1017.26 1017.19 1017.40 1017.65 1017.90 1018.11 1018.34 1018.52 1018.74 1019.02 1019.27 1019.47 1019.67 1019.92 1020.21 1020.42 1020.52 1020.60 1020.67 1020.79 1020.88 1020.93 1020.94 1020.94 1020.94
1016.73 1016.76 1017.00 1017.45 1017.79 1017.97 1018.02 1018.32 1018.80 1018.94 1018.87 1018.94 1018.55 1018.27 1018.11 1017.87 1017.25 1016.44 1016.14 1016.00 1016.05 1016.02 1016.03 1016.09 1016.14 1016.19 1016.30 1016.46 1016.70 1016.94 1017.15 1017.25 1017.38 1017.62 1017.82 1018.08 1018.33 1018.61 1018.94 1019.18 1019.37 1019.59 1019.85 1020.15 1020.38 1020.52 1020.66 1020.71 1020.75 1020.78 1020.81 1020.81 1020.78 1020.73
Wind_Speed
7 7 7 7 7 4 3 2 3 3 4 1 2 4 6 9 10 4 3 4 3 1 5 2 3 1 2 2 2 4 5 5 4 3 2 3 3 3 3 4 3 3 2 3 4 2 5 11 5 6 7 5 6 3
9 10 9 9 7 5 4 3 2 2 4 2 1 2 5 5 6 4 2 3 2 2 6 2 6 8 5 5 3 2 3 2 3 2 2 2 3 3 1 3 5 2 2 3 5 6 10 3 2 6 5 4 4 5
8 9 8 8 6 6 5 5 3 2 1 2 1 2 4 4 3 3 0 1 3 2 5 3 4 5 4 7 6 4 3 4 2 1 2 2 2 2 1 5 2 6 4 2 5 4 7 11 13 3 1 4 6 5
9 8 6 6 5 5 5 7 5 6 5 4 3 3 3 3 3 3 1 1 3 1 1 7 3 5 5 3 7 7 6 3 2 3 2 2 3 3 4 4 2 6 4 6 7 9 7 7 4 7 9 6 7 8
9 8 7 6 7 6 5 5 5 6 6 6 6 5 3 3 3 1 2 3 3 4 3 6 8 6 3 4 9 7 6 4 2 1 1 4 3 2 4 1 7 5 7 5 7 8 6 7 6 5 6 8 11 14
10 7 8 9 8 7 7 8 8 8 8 6 6 6 4 4 2 3 4 3 4 3 2 4 5 5 6 6 4 5 5 3 3 3 2 4 4 2 2 5 6 10 4 6 6 6 7 8 1 7 6 10 11 11
11 9 7 7 9 9 10 8 9 10 10 9 7 7 4 6 3 3 5 4 2 3 2 4 6 6 3 2 2 2 1 1 3 2 4 3 3 3 3 9 3 7 13 11 12 5 1 5 4 5 7 9 11 9
10 9 9 9 9 10 10 9 9 7 8 8 6 4 3 3 1 3 4 6 4 4 1 3 6 5 2 1 0 1 2 1 1 3 2 3 2 3 8 7 4 10 10 6 3 3 3 2 4 6 7 7 8 9
11 10 9 10 10 11 10 9 5 3 2 2 3 6 4 2 1 4 6 8 2 3 3 3 3 5 2 1 1 1 2 2 3 4 4 3 3 8 10 8 7 10 6 5 2 5 6 6 6 5 5 6 7 9
11 10 9 9 8 9 10 10 8 6 5 10 4 3 1 3 2 4 4 2 1 1 2 4 3 5 2 0 2 1 1 3 2 5 1 4 6 14 13 13 8 6 6 4 3 4 3 3 3 4 5 5 5 6
12 10 9 10 10 9 8 9 10 8 7 3 2 3 3 3 2 2 2 3 2 3 3 4 7 5 3 3 3 3 3 2 3 6 4 3 5 6 7 4 5 7 6 5 5 2 2 2 2 3 3 4 6 8
12 11 12 13 14 13 12 11 12 4 4 7 6 4 2 2 2 4 4 2 4 6 4 4 5 5 3 2 2 2 2 0 6 1 2 4 6 6 6 7 5 6 7 5 3 2 2 1 3 2 2 3 5 6
14 14 15 16 16 15 15 14 14 10 12 2 3 3 3 3 6 7 8 4 3 4 5 3 1 4 2 3 0 1 3 5 2 1 5 6 4 1 6 5 6 5 6 5 2 2 0 2 1 1 3 1 2 5
16 16 16 16 15 16 16 15 17 9 4 4 5 7 7 5 7 7 6 5 6 4 5 4 2 3 2 2 3 3 5 1 3 2 6 5 7 5 6 4 5 4 5 4 2 2 2 2 0 3 2 2 3 3
18 17 16 15 16 16 15 14 14 4 3 4 5 7 10 6 3 5 5 2 3 4 5 3 3 3 2 3 4 1 3 6 6 5 5 4 3 5 6 5 5 5 4 3 2 3 4 3 1 3 3 2 2 1
16 14 11 16 16 15 15 9 2 2 3 5 6 5 3 4 3 2 3 4 4 4 3 3 3 2 6 5 4 8 5 8 5 4 4 2 3 5 6 6 6 6 5 5 5 5 4 2 4 4 2 2 1 1
16 5 9 14 17 16 11 5 3 5 5 5 3 3 3 1 5 5 5 4 4 4 4 3 6 8 1 2 4 6 7 3 4 4 3 4 5 8 7 6 6 5 5 6 5 5 4 4 3 2 2 2 2 1
6 4 13 5 7 6 2 2 2 2 4 3 2 4 4 3 2 3 5 4 5 4 4 6 4 5 8 8 6 3 5 5 5 5 5 4 4 5 5 6 5 6 5 5 5 5 4 5 4 2 2 2 1 1
7 7 8 16 7 5 4 2 3 4 6 3 3 2 4 3 4 2 3 4 5 3 4 3 7 6 6 4 5 5 5 4 4 4 4 4 5 6 6 5 6 5 5 5 5 4 3 4 3 3 2 1 1 1
14 15 15 17 8 3 4 3 0 3 4 5 1 2 3 3 2 2 3 3 4 3 5 7 8 8 5 5 5 4 4 4 3 1 4 3 4 5 6 6 4 4 4 4 3 5 1 1 1 2 2 3 2 2
8 8 11 6 3 2 4 4 4 4 2 3 2 4 3 2 2 2 2 4 6 4 4 6 9 11 5 5 4 4 5 5 5 6 5 2 2 3 3 2 3 3 2 2 3 4 5 3 3 2 2 2 3 3
3 13 4 2 2 2 2 4 3 3 2 2 0 2 2 2 3 4 3 4 5 7 6 6 10 8 6 4 5 6 4 4 3 2 4 4 3 2 2 3 3 3 3 3 3 3 3 3 3 2 3 4 4 3
10 4 3 2 3 3 2 2 3 4 3 2 2 3 3 2 2 3 4 5 6 5 8 8 8 4 6 3 3 3 4 5 4 4 2 2 2 3 3 3 3 4 3 3 3 3 3 5 4 3 3 3 2 1
5 4 6 6 5 5 4 4 2 3 2 1 2 3 3 4 3 3 5 5 5 2 2 4 3 2 2 1 2 3 4 3 2 2 3 4 3 2 3 3 3 4 3 3 4 3 3 3 4 2 2 2 2 2
5 5 4 5 3 5 5 4 4 4 4 4 4 4 4 3 3 4 5 4 2 1 2 2 3 3 3 2 2 2 2 4 3 3 3 3 3 2 2 2 3 3 3 3 3 3 3 3 3 3 3 2 2 3
6 6 8 7 3 6 6 6 6 7 4 5 6 4 2 2 4 7 4 3 3 3 3 4 3 2 2 2 2 3 3 2 1 2 3 4 4 4 4 4 3 3 4 3 3 4 4 4 4 5 3 4 6 2
5 5 3 0 4 3 2 2 3 4 7 7 4 5 4 5 7 6 2 2 2 2 2 2 3 3 3 2 2 1 3 4 3 3 3 4 3 3 4 4 5 4 4 5 4 4 4 4 4 4 4 2 3 4
5 6 9 6 2 2 5 4 6 7 5 4 4 7 7 8 6 3 3 2 3 3 2 2 2 1 2 2 3 3 4 4 4 4 4 3 2 2 3 2 2 8 4 4 4 3 3 3 3 3 4 4 4 3
3 3 5 5 2 3 6 7 6 5 4 5 6 5 5 4 2 2 2 2 3 3 2 2 1 1 2 2 3 3 4 4 5 4 4 3 2 3 4 3 3 2 2 2 5 5 5 4 4 3 3 3 3 2
4 3 4 4 8 9 6 6 3 1 1 2 1 2 3 3 3 2 3 3 4 5 5 4 3 4 4 5 3 3 3 4 4 4 4 4 4 2 4 4 4 3 3 3 3 2 4 1 1 1 2 2 2 3
4 3 3 3 5 3 2 1 2 2 2 1 0 2 3 3 4 3 4 3 3 3 3 3 5 6 6 6 6 7 7 4 5 6 4 3 4 4 4 4 3 4 3 3 3 3 2 2 3 3 3 4 5 3
2 4 5 4 4 3 2 2 2 1 1 0 3 1 3 3 4 3 2 2 3 2 7 5 4 4 4 3 4 4 6 3 6 5 6 4 4 4 4 4 4 4 4 3 3 2 2 3 3 3 2 3 4 4
2 2 2 3 2 1 1 3 1 2 2 2 3 3 3 4 6 2 2 2 1 1 3 4 4 4 5 5 5 4 5 3 6 9 9 8 9 7 4 3 3 3 4 3 3 3 3 3 3 3 4 4 5 5
Wind_Direction
234 251 246 235 214 221 256 296 307 350 332 359 13 9 17 20 19 49 283 33 96 51 284 338 1 10 344 107 153 276 11 350 353 27 345 336 351 355 347 319 7 11 357 334 356 298 245 357 5 44 269 284 312 332
257 251 247 206 212 230 247 264 290 311 356 158 122 344 351 9 14 51 21 355 36 124 244 293 237 237 206 189 145 281 205 348 247 52 19 14 336 337 201 263 315 276 138 227 189 241 316 3 319 252 254 276 295 295
246 236 232 204 228 233 234 241 248 255 227 171 183 290 316 334 352 98 119 312 36 7 310 5 263 277 200 206 166 154 275 199 40 145 191 221 245 157 237 254 263 315 326 280 5 294 297 302 305 4 271 284 296 296
235 230 228 229 223 249 265 247 255 250 245 237 257 271 297 317 296 159 120 197 90 273 83 281 325 301 272 189 188 190 203 318 80 93 151 184 184 188 233 237 197 225 326 254 270 280 302 296 305 310 329 352 344 352
225 210 213 232 237 234 239 240 255 261 250 248 254 266 278 279 288 208 214 216 166 126 225 285 310 260 346 192 224 202 193 177 149 39 166 233 236 217 252 279 249 185 220 183 259 256 234 260 283 309 354 357 5 2
214 220 238 238 238 232 248 260 261 260 259 256 252 264 258 222 124 48 346 331 180 173 91 315 285 298 313 303 224 195 173 171 142 146 217 244 256 155 245 246 234 225 239 189 246 230 241 261 244 26 27 19 3 355
213 221 237 251 232 240 251 258 260 261 257 256 254 255 246 183 114 162 186 229 114 79 86 297 297 280 253 23 9 65 33 128 136 178 231 220 227 208 244 252 221 287 277 276 283 291 33 25 19 41 33 8 356 346
215 227 242 252 255 246 253 252 239 252 257 248 239 207 187 175 88 334 242 165 109 86 66 256 267 322 175 239 225 336 95 45 206 218 259 212 267 176 248 254 234 245 254 269 171 68 101 79 46 43 23 354 347 345
224 225 240 249 254 250 238 222 211 198 191 194 155 129 71 73 169 241 240 155 81 129 202 208 229 262 340 219 122 38 137 233 221 221 230 145 219 226 237 242 213 249 240 184 60 40 40 26 6 15 357 334 353 349
221 225 233 244 254 248 235 219 207 193 146 121 72 85 297 233 250 27 28 68 208 252 225 231 187 254 112 36 314 123 186 233 256 239 158 218 248 253 254 247 227 214 156 121 80 347 356 357 354 339 323 345 357 344
217 225 241 249 251 252 251 239 221 201 105 78 113 182 200 268 87 61 221 203 182 256 226 218 205 233 289 162 207 197 212 230 253 264 153 261 265 245 259 239 144 134 134 110 117 120 111 137 305 300 331 0 360 355
223 232 242 247 253 252 249 246 235 175 167 177 150 143 84 137 195 207 208 248 194 231 217 192 213 184 250 113 108 282 218 211 250 233 222 273 256 274 137 136 137 133 126 114 116 124 136 276 287 336 352 3 8 351
231 247 250 248 249 245 243 238 240 178 88 87 81 140 166 184 212 203 204 212 204 211 211 189 169 145 32 48 192 130 228 233 7 304 230 236 260 94 161 151 147 140 122 126 129 133 121 298 42 13 330 29 19 353
250 250 250 251 245 242 240 235 232 179 124 164 168 183 193 192 225 201 189 185 218 184 176 147 148 140 167 105 196 220 230 138 245 256 235 255 250 220 191 186 145 158 142 150 177 200 243 271 263 309 315 11 33 8
251 249 253 249 248 242 237 235 230 123 139 187 190 208 209 213 225 210 202 199 219 169 135 91 56 113 193 219 193 170 264 229 218 225 225 236 247 161 182 186 174 163 168 181 217 227 241 250 283 273 290 118 37 352
246 258 249 247 245 235 231 234 66 98 183 190 207 227 232 152 247 282 204 214 188 140 89 90 138 181 232 187 164 209 174 219 231 222 233 206 217 200 193 187 182 175 174 195 213 219 217 204 245 249 226 148 359 290
234 226 221 229 228 229 156 109 136 186 235 195 200 180 225 243 192 203 188 198 155 131 179 154 185 204 137 215 223 202 213 195 227 247 231 222 212 209 207 189 186 183 199 211 207 191 206 233 220 244 206 260 284 264
213 220 227 190 100 95 54 84 121 173 237 226 202 202 165 214 222 223 214 171 140 178 162 210 154 190 205 205 222 228 228 237 240 242 253 261 235 217 190 199 187 186 209 219 192 197 215 220 208 199 193 269 337 72
214 199 216 160 129 113 134 161 161 232 227 221 219 255 201 229 230 214 187 197 186 158 134 170 222 219 217 212 193 215 229 207 222 235 221 220 203 202 204 194 196 200 208 192 186 194 227 191 185 179 195 147 181 222
234 216 189 169 118 119 134 166 105 214 227 222 176 215 196 205 233 197 186 169 174 198 209 214 220 225 201 215 206 221 214 199 159 266 274 263 224 209 216 206 200 183 184 170 168 218 207 217 134 158 175 204 166 230
251 194 184 118 108 137 147 160 186 216 213 205 216 175 226 157 192 221 214 171 211 220 235 220 238 245 215 233 211 218 223 179 199 200 239 238 230 174 210 179 148 120 129 154 189 230 212 181 196 189 184 225 217 226
121 101 96 180 144 101 151 183 163 179 138 226 100 215 232 209 197 217 190 202 236 228 215 221 238 240 240 239 226 207 200 168 176 206 231 247 244 201 175 171 150 179 185 198 181 180 198 198 190 192 182 239 247 242
101 87 88 118 116 158 214 161 150 178 202 233 187 218 226 233 210 118 235 235 247 222 233 241 248 215 235 208 150 165 176 193 221 237 216 183 159 161 164 178 167 163 185 228 172 167 192 209 235 199 218 230 212 264
84 132 175 183 161 181 142 179 176 138 168 200 208 248 232 222 154 221 246 239 236 264 213 208 134 100 65 139 199 196 190 166 195 155 156 159 171 181 175 185 191 204 193 175 166 191 196 205 203 213 230 235 234 237
147 198 180 174 120 135 177 154 167 174 220 177 211 237 251 181 218 236 236 253 253 244 222 181 191 203 194 199 191 163 154 160 184 179 177 155 142 130 164 174 182 194 164 152 192 194 197 190 193 205 214 221 235 276
211 207 178 170 187 142 185 168 190 194 182 190 216 230 157 202 231 242 238 206 204 211 202 199 190 188 262 206 156 160 184 171 171 171 221 173 178 169 180 183 192 247 210 184 186 201 202 200 208 215 223 252 267 269
203 186 215 332 143 135 162 156 126 168 196 197 215 172 190 224 239 248 248 226 216 214 165 154 154 168 209 194 72 42 130 180 175 185 171 149 136 154 162 186 211 226 167 176 187 194 205 212 211 216 227 230 231 236
195 161 168 189 176 187 164 172 177 201 206 210 134 191 207 207 232 228 203 183 140 137 120 102 111 126 109 118 135 131 98 107 98 82 67 52 75 125 147 138 150 154 155 167 170 162 172 188 195 205 219 236 242 234
177 190 117 153 156 192 202 189 210 212 199 156 173 205 229 230 218 181 205 170 136 131 146 160 284 92 62 67 128 123 133 148 144 151 187 211 208 260 199 179 165 147 162 197 198 173 178 178 196 216 234 238 247 251
235 162 110 167 167 205 221 186 212 238 20 181 148 342 310 278 250 183 131 147 176 200 196 184 180 174 174 175 169 179 188 184 181 156 181 205 210 195 160 170 172 172 171 177 199 244 239 147 292 341 249 253 258 266
138 136 117 157 220 242 206 160 46 62 59 341 304 183 249 296 298 233 203 180 167 167 166 185 191 199 195 190 196 204 220 220 199 190 164 145 141 154 171 178 169 156 164 186 201 204 217 224 214 239 256 258 268 283
138 189 153 182 257 280 21 118 166 185 244 136 274 186 335 3 273 275 313 124 138 180 219 200 187 208 210 202 183 184 210 199 179 183 175 164 171 169 156 151 148 151 158 180 201 216 232 232 241 250 249 254 259 268
39 57 73 95 68 342 244 95 46 321 339 262 261 200 212 203 244 280 337 31 45 225 208 217 214 211 197 177 165 155 150 155 169 179 180 172 163 158 145 146 144 144 149 168 202 218 231 214 244 267 277 279 283 284